When you browse on this site, cookies collect data to enhance your experience and personalize the content and advertising you see.
Visit our Privacy Policy to learn more. By continuing to use the site, you agree to this use of cookies and data.
  • en France
  • Liste des pays
  • À 7 jours
  • Température de l'eau
  • Carte météo
  • Widgets météo
  • user-avatar
    Se connecter

    Météo par heure à Letchworth

    Ce jour, 31 Mai, Dimanche

    Heure Température Précipitation Vent Pression Humidité
    00:00 +8°C° 0 mm 4 m/s 759 mmHg 88%
    01:00 +8°C° 0 mm 3 m/s 758 mmHg 89%
    02:00 +8°C° 0 mm 3 m/s 758 mmHg 90%
    03:00 +8°C° 0 mm 3 m/s 758 mmHg 91%
    04:00 +9°C° 0 mm 3 m/s 758 mmHg 89%
    05:00 +10°C° 0 mm 3 m/s 759 mmHg 88%
    06:00 +12°C° 0 mm 4 m/s 759 mmHg 86%
    07:00 +14°C° 0 mm 4 m/s 759 mmHg 79%
    08:00 +17°C° 0 mm 4 m/s 759 mmHg 72%
    09:00 +19°C° 0 mm 5 m/s 759 mmHg 65%
    10:00 +20°C° 0 mm 5 m/s 759 mmHg 62%
    11:00 +20°C° 0 mm 6 m/s 759 mmHg 58%
    12:00 +21°C° 0 mm 6 m/s 759 mmHg 55%
    13:00 +20°C° 0 mm 6 m/s 759 mmHg 55%
    14:00 +20°C° 0 mm 6 m/s 759 mmHg 55%
    15:00 +20°C° 0 mm 6 m/s 759 mmHg 56%
    16:00 +19°C° 0 mm 5 m/s 759 mmHg 60%
    17:00 +17°C° 0 mm 5 m/s 759 mmHg 64%
    18:00 +17°C° 0 mm 4 m/s 759 mmHg 69%
    19:00 +14°C° 0 mm 4 m/s 759 mmHg 74%
    20:00 +12°C° 0 mm 4 m/s 759 mmHg 80%
    21:00 +10°C° 0 mm 4 m/s 759 mmHg 86%
    22:00 +10°C° 0 mm 3 m/s 759 mmHg 89%
    23:00 +9°C° 0 mm 3 m/s 760 mmHg 92%

    Demain, 1 Juin, Lundi

    Heure Température Précipitation Vent Pression Humidité
    00:00 +8°C° 0 mm 3 m/s 760 mmHg 95%
    01:00 +8°C° 0 mm 3 m/s 759 mmHg 95%
    02:00 +8°C° 0 mm 3 m/s 759 mmHg 96%
    03:00 +8°C° 0 mm 3 m/s 759 mmHg 97%
    04:00 +9°C° 0 mm 3 m/s 759 mmHg 95%
    05:00 +10°C° 0 mm 3 m/s 759 mmHg 93%
    06:00 +12°C° 0 mm 3 m/s 759 mmHg 91%
    07:00 +13°C° 0 mm 4 m/s 759 mmHg 84%
    08:00 +15°C° 0 mm 4 m/s 759 mmHg 78%
    09:00 +17°C° 0 mm 5 m/s 759 mmHg 71%
    10:00 +19°C° 0 mm 5 m/s 759 mmHg 69%
    11:00 +20°C° 0 mm 5 m/s 759 mmHg 66%
    12:00 +21°C° 0 mm 5 m/s 759 mmHg 64%
    13:00 +21°C° 0 mm 5 m/s 759 mmHg 64%
    14:00 +21°C° 0 mm 5 m/s 759 mmHg 65%
    15:00 +21°C° 0 mm 4 m/s 759 mmHg 65%
    16:00 +20°C° 0 mm 4 m/s 759 mmHg 68%
    17:00 +20°C° 0 mm 4 m/s 759 mmHg 71%
    18:00 +19°C° 0 mm 4 m/s 758 mmHg 75%
    19:00 +15°C° 0 mm 4 m/s 759 mmHg 80%
    20:00 +13°C° 0 mm 4 m/s 759 mmHg 86%
    21:00 +10°C° 0 mm 3 m/s 759 mmHg 91%
    22:00 +9°C° 0 mm 3 m/s 759 mmHg 93%
    23:00 +9°C° 0 mm 3 m/s 759 mmHg 95%

    Après-demain, 2 Juin, Mardi

    Heure Température Précipitation Vent Pression Humidité
    00:00 +8°C° 0 mm 3 m/s 759 mmHg 97%
    01:00 +7°C° 0 mm 3 m/s 758 mmHg 97%
    02:00 +7°C° 0 mm 3 m/s 758 mmHg 98%
    03:00 +7°C° 0 mm 3 m/s 758 mmHg 98%
    04:00 +8°C° 0 mm 3 m/s 758 mmHg 97%
    05:00 +9°C° 0 mm 3 m/s 758 mmHg 96%
    06:00 +10°C° 0 mm 3 m/s 758 mmHg 95%
    07:00 +12°C° 0 mm 3 m/s 757 mmHg 90%
    08:00 +16°C° 0 mm 3 m/s 757 mmHg 84%
    09:00 +18°C° 0 mm 3 m/s 757 mmHg 78%
    10:00 +19°C° 0 mm 3 m/s 757 mmHg 74%
    11:00 +20°C° 0 mm 2 m/s 757 mmHg 70%
    12:00 +21°C° 0 mm 2 m/s 756 mmHg 65%
    13:00 +21°C° 0 mm 2 m/s 756 mmHg 66%
    14:00 +21°C° 0 mm 3 m/s 755 mmHg 66%
    15:00 +21°C° 0 mm 3 m/s 755 mmHg 66%
    16:00 +21°C° 0.1 mm 3 m/s 754 mmHg 71%
    17:00 +20°C° 0.1 mm 3 m/s 754 mmHg 76%
    18:00 +19°C° 0.1 mm 4 m/s 753 mmHg 81%
    19:00 +17°C° 0 mm 3 m/s 753 mmHg 86%
    20:00 +14°C° 0 mm 3 m/s 753 mmHg 90%
    21:00 +14°C° 0 mm 2 m/s 753 mmHg 94%
    22:00 +13°C° 0 mm 2 m/s 752 mmHg 94%
    23:00 +12°C° 0 mm 2 m/s 752 mmHg 94%

    3 Juin, Mercredi

    Heure Température Précipitation Vent Pression Humidité
    00:00 +12°C° 0 mm 1 m/s 752 mmHg 95%
    01:00 +10°C° 0 mm 2 m/s 751 mmHg 95%
    02:00 +10°C° 0 mm 2 m/s 751 mmHg 95%
    03:00 +9°C° 0 mm 2 m/s 750 mmHg 96%
    04:00 +9°C° 0 mm 2 m/s 750 mmHg 95%
    05:00 +10°C° 0 mm 2 m/s 750 mmHg 94%
    06:00 +11°C° 0 mm 3 m/s 749 mmHg 93%
    07:00 +12°C° 0 mm 3 m/s 749 mmHg 89%
    08:00 +13°C° 0 mm 3 m/s 749 mmHg 85%
    09:00 +15°C° 0 mm 4 m/s 749 mmHg 81%
    10:00 +17°C° 0.1 mm 4 m/s 749 mmHg 78%
    11:00 +18°C° 0.1 mm 4 m/s 749 mmHg 74%
    12:00 +19°C° 0.1 mm 5 m/s 749 mmHg 70%
    13:00 +17°C° 0.4 mm 5 m/s 749 mmHg 73%
    14:00 +17°C° 0.4 mm 6 m/s 748 mmHg 77%
    15:00 +16°C° 0.4 mm 6 m/s 748 mmHg 80%
    16:00 +16°C° 0.1 mm 6 m/s 748 mmHg 79%
    17:00 +15°C° 0.1 mm 6 m/s 748 mmHg 78%
    18:00 +14°C° 0.1 mm 6 m/s 748 mmHg 78%
    19:00 +13°C° 0 mm 6 m/s 748 mmHg 82%
    20:00 +12°C° 0 mm 5 m/s 748 mmHg 86%
    21:00 +9°C° 0 mm 5 m/s 749 mmHg 90%
    22:00 +9°C° 0 mm 5 m/s 749 mmHg 92%
    23:00 +9°C° 0 mm 5 m/s 749 mmHg 94%

    4 Juin, Jeudi

    Heure Température Précipitation Vent Pression Humidité
    00:00 +9°C° 0 mm 5 m/s 749 mmHg 96%
    01:00 +9°C° 0 mm 5 m/s 748 mmHg 93%
    02:00 +10°C° 0 mm 4 m/s 748 mmHg 90%
    03:00 +10°C° 0 mm 4 m/s 748 mmHg 87%
    04:00 +10°C° 0 mm 4 m/s 748 mmHg 85%
    05:00 +10°C° 0 mm 4 m/s 748 mmHg 84%
    06:00 +10°C° 0 mm 4 m/s 748 mmHg 82%
    07:00 +11°C° 0 mm 4 m/s 748 mmHg 79%
    08:00 +12°C° 0 mm 4 m/s 748 mmHg 75%
    09:00 +13°C° 0 mm 4 m/s 749 mmHg 72%
    10:00 +14°C° 0.1 mm 4 m/s 749 mmHg 68%
    11:00 +15°C° 0.1 mm 4 m/s 749 mmHg 64%
    12:00 +15°C° 0.1 mm 4 m/s 749 mmHg 60%
    13:00 +16°C° 0 mm 3 m/s 749 mmHg 60%
    14:00 +16°C° 0 mm 3 m/s 748 mmHg 60%
    15:00 +16°C° 0 mm 3 m/s 748 mmHg 61%
    16:00 +16°C° 0 mm 2 m/s 748 mmHg 63%
    17:00 +16°C° 0 mm 2 m/s 748 mmHg 65%
    18:00 +16°C° 0 mm 1 m/s 748 mmHg 68%
    19:00 +15°C° 0 mm 1 m/s 748 mmHg 72%
    20:00 +13°C° 0 mm 1 m/s 748 mmHg 76%
    21:00 +12°C° 0 mm 2 m/s 748 mmHg 81%
    22:00 +10°C° 0 mm 2 m/s 748 mmHg 84%
    23:00 +9°C° 0 mm 2 m/s 748 mmHg 87%

    5 Juin, Vendredi

    Heure Température Précipitation Vent Pression Humidité
    00:00 +9°C° 0 mm 2 m/s 748 mmHg 90%
    01:00 +9°C° 0 mm 2 m/s 747 mmHg 88%
    02:00 +9°C° 0 mm 2 m/s 747 mmHg 87%
    03:00 +9°C° 0 mm 2 m/s 747 mmHg 86%
    04:00 +9°C° 0 mm 2 m/s 747 mmHg 85%
    05:00 +10°C° 0 mm 2 m/s 747 mmHg 83%
    06:00 +12°C° 0 mm 2 m/s 747 mmHg 82%
    07:00 +12°C° 0 mm 3 m/s 746 mmHg 77%
    08:00 +14°C° 0 mm 4 m/s 746 mmHg 72%
    09:00 +15°C° 0 mm 4 m/s 746 mmHg 66%
    10:00 +17°C° 0 mm 4 m/s 746 mmHg 65%
    11:00 +17°C° 0 mm 5 m/s 746 mmHg 64%
    12:00 +19°C° 0 mm 5 m/s 745 mmHg 64%
    13:00 +19°C° 0.1 mm 4 m/s 745 mmHg 66%
    14:00 +19°C° 0.1 mm 4 m/s 745 mmHg 68%
    15:00 +19°C° 0.1 mm 4 m/s 745 mmHg 70%
    16:00 +18°C° 0.1 mm 4 m/s 745 mmHg 75%
    17:00 +15°C° 0.1 mm 4 m/s 745 mmHg 80%
    18:00 +14°C° 0.1 mm 3 m/s 745 mmHg 85%
    19:00 +13°C° 0 mm 3 m/s 745 mmHg 84%
    20:00 +12°C° 0 mm 3 m/s 745 mmHg 83%
    21:00 +12°C° 0 mm 3 m/s 746 mmHg 82%
    22:00 +10°C° 0 mm 3 m/s 746 mmHg 83%
    23:00 +8°C° 0 mm 3 m/s 746 mmHg 84%
    Voir plus